Regional Weather Roundup
Issued by NWS

Home | Current Version | Previous Version | Graphics & Text | Print | Product List | Glossary On
Versions: 1 2 3 4 5 6 7 8 9 10 11 12 13 14 15 16 17 18 19 20 21 22 23 24 25 26 27
000
ASUS45 KBOU 210007
RWRCO

WEATHER ROUNDUP FOR COLORADO
NATIONAL WEATHER SERVICE DENVER/BOULDER CO
600 PM MDT SUN AUG 20 2017

NOTE: "FAIR" INDICATES FEW OR NO CLOUDS BELOW 12000 FEET WITH NO
SIGNIFICANT WEATHER AND/OR OBSTRUCTIONS TO VISIBILITY.

COZ001>005-013-030-031-210100-
...NORTHWEST COLORADO...

CITY           SKY/WX    TMP DP  RH WIND       PRES   REMARKS
CRAIG          CLOUDY    78  36  21 SE9       30.12R
HAYDEN         PTSUNNY   75  40  28 E5        30.17R
MEEKER         FAIR      85  28  12 SW6       30.11F
RABBIT EARS PA FAIR      59  34  38 CALM      30.48S
STEAMBOAT SPGS PTSUNNY   76  37  24 SW7G17    30.18S
WALDEN         FAIR      68  34  28 S5        30.30S
$$

COZ006>008-011-210100-
...WEST CENTRAL VALLEYS...

CITY           SKY/WX    TMP DP  RH WIND       PRES   REMARKS
GRAND JUNCTION FAIR      93  31  11 W13       29.96F
MONTROSE       FAIR      86  32  14 N3        30.08S
EAGLE          FAIR      84  33  16 N10       30.14S
RIFLE          FAIR      92  28  10 N3        30.04F
DELTA          FAIR      94  26   9 W13G20    30.00S
NUCLA          FAIR      82  32  16 E25G33    30.13R
$$

COZ017>023-064>068-210100-
...SOUTHWEST COLORADO...

CITY           SKY/WX    TMP DP  RH WIND       PRES   REMARKS
DURANGO        FAIR      73  38  27 NE16      30.23S
CORTEZ         CLOUDY    70  52  52 SE12      30.16F
PAGOSA SPRINGS FAIR      70  34  26 NW12G17   30.28F
TELLURIDE      FAIR      66  34  30 CALM      30.40F
WOLF CREEK PAS CLOUDY    48  34  57 SW6       30.63F
$$

COZ009-010-012-014-032>034-037-058>063-210100-
...CENTRAL COLORADO...

CITY           SKY/WX    TMP DP  RH WIND       PRES   REMARKS
ASPEN          FAIR      78  30  17 NW10      30.22S
BUENA VISTA    FAIR      73  32  22 E5        30.28F
COPPER MTN     CLOUDY    54  36  50 SE7       30.61F
BERTHOUD PASS  FAIR      43  37  81 SE21G26   30.65R
COTTONWOOD PAS FAIR      66  30  26 CALM      30.44S
GUNNISON       FAIR      76  41  28 SW5       30.21F
KREMMLING      FAIR      82  23  11 NW8       30.22S
LEADVILLE      LGT RAIN  61  34  36 S10       30.44R
MONARCH PASS   FAIR      54  32  43 E21       30.69S
SALIDA         PTSUNNY   77  34  21 E12       30.32S
SUNLIGHT       FAIR      61  28  29 NW7       30.52S
WILKERSON PASS CLOUDY    52  34  50 SE7       30.59S
$$

COZ069>075-210100-
...SAN LUIS VALLEY/SANGRE DE CRISTO MOUNTAINS...

CITY           SKY/WX    TMP DP  RH WIND       PRES   REMARKS
ALAMOSA        FAIR      66  44  45 S18G26    30.24F
DEL NORTE      FAIR      70  38  30 SW8       30.28R
LA VETA PASS   NOT AVBL
SAGUACHE       FAIR      75  41  29 SW22G33   30.26R
$$

COZ035-036-038>040-210100-
...NORTHERN COLORADO FRONT RANGE...

CITY           SKY/WX    TMP DP  RH WIND       PRES   REMARKS
DENVER INTL AP PTSUNNY   86  34  15 SE3       30.08S
DMNS CITY PARK   N/A     84  30  14 N6G14     30.08R
AURORA         PTSUNNY   86  36  16 NE3       30.10S
FRONT RANGE AP PTSUNNY   86  36  16 NE5       30.10S
ERIE MUNI ARPT FAIR      86  37  17 N5        30.12S
BOULDER MUN AP FAIR      84  36  17 NW3       30.08S
CENTENNIAL     PTSUNNY   85  31  14 NE3       30.12S
BROOMFIELD     PTSUNNY   82  37  20 NW6       30.12S
FORT COLLINS   FAIR      87  46  24 N5        30.08R
LONGMONT       FAIR      88  38  17 E3        30.08S
$$

COZ041-046-047-076>085-087-088-210100-
...PIKES PEAK/PALMER DIVIDE AND SOUTHERN FOOTHILLS...

CITY           SKY/WX    TMP DP  RH WIND       PRES   REMARKS
COLO. SPRINGS  PTSUNNY   79  50  36 N8        30.17R THUNDER
A. F. ACADEMY  LGT RAIN  73  38  27 CALM      30.21R
SCHRIEVER AFB  FAIR      78  43  29 N6        30.17R
CHEYENNE MTN   PTSUNNY   75  40  27 NW12      30.18R THUNDER
ELLICOTT       NOT AVBL
FALCON         FAIR      74  44  33 N3        30.23R
FORT CARSON    FAIR      77  54  44 NE3       30.12R THUNDER
LIMON          FAIR      83  47  28 NE6       30.08S
MONUMENT HILL  CLOUDY    70  46  43 S3        30.25S
CANON CITY     MOSUNNY   81  46  30 NW17G33   30.08R
WALSENBURG     FAIR      81  43  26 SW9       30.11R
TRINIDAD       FAIR      76  44  32 W20G29    30.11R
$$

COZ042>045-048>051-090-091-210100-
...NORTHEAST COLORADO...

CITY           SKY/WX    TMP DP  RH WIND       PRES   REMARKS
GREELEY ARPT   FAIR      86  55  34 E5        30.05S
AKRON          FAIR      87  54  32 E12       30.03S
BURLINGTON     FAIR      86  60  41 SE8       29.99S
WRAY           NOT AVBL
YUMA           FAIR      82  46  28 E12       30.00R
STERLING       FAIR      86  63  45 NE8       29.98S
HOLYOKE        FAIR      86  64  48 E9        29.99S
FORT MORGAN    FAIR      88  49  26 NE6       30.03S
$$

COZ086-089-092>099-210100-
...SOUTHEAST COLORADO...

CITY           SKY/WX    TMP DP  RH WIND       PRES   REMARKS
PUEBLO         FAIR      91  45  20 SE10      30.00R
LA JUNTA       FAIR      90  55  30 E8        29.96S
LAMAR          FAIR      89  62  40 E6        29.91F
SPRINGFIELD      N/A     84  58  40 S16       29.99S
$$




USA.gov is the U.S. government's official web portal to all federal, state and local government web resources and services.